Location: Worth Mountain WMA
(34.9569°N, 81.4819°W)
Time: 06:59:58
(UTC-04:00)

Amateur Radio Satellites - All Passes

Search period start: 19 April 2015 06:29
Search period end: 20 April 2015 06:29
Location: Worth Mountain WMA, 34.9569°N, 81.4819°W

Satellite Date Start Highest point End Downlink Frequencies (MHz)
Time Altitude Azimuth
SRMSAT 19 Apr 06:31:20 06:34:15 14° 169° (S) 06:37:14 437.500
JUGNU 19 Apr 06:35:15 06:39:04 18° 179° (S) 06:42:52 437.505
CUTE-I 19 Apr 06:43:57 06:47:33 19° 93° (E) 06:51:20 437.470
GONETS M04 19 Apr 06:45:51 06:53:29 32° 273° (W) 07:00:51
JAS-2 19 Apr 06:49:56 06:55:14 25° 295° (WNW) 06:59:54 435.910
STRAND 1 19 Apr 06:50:11 06:54:23 27° 70° (ENE) 06:58:41 437.568
Cubesat XI-IV 19 Apr 06:50:56 06:54:59 23° 94° (E) 06:59:10 437.490
MOZHAYETS 4 19 Apr 06:53:56 06:54:45 10° 271° (W) 06:55:11
Cosmos 2499 19 Apr 06:54:30 07:02:10 50° 77° (ENE) 07:09:19 435.465 / 435.565
PRISM 19 Apr 06:59:59 07:03:57 42° 74° (ENE) 07:07:55 437.425
AUBIESAT-1 19 Apr 07:04:28 07:08:55 47° 257° (WSW) 07:13:33 437.475
DANDE 19 Apr 07:35:22 07:41:06 25° 269° (W) 07:47:17 436.750
AIST 2 19 Apr 07:42:32 07:43:43 11° 316° (NW) 07:44:41 435.215
CUSAT 1 19 Apr 07:45:45 07:50:21 17° 271° (W) 07:54:47 437.405
M-CUBED/EXP-1 PRIME 19 Apr 07:52:25 07:54:46 13° 266° (W) 07:56:54 437.505
CUBESAT XI-V 19 Apr 08:06:17 08:10:00 23° 266° (W) 08:13:36 437.345
SRMSAT 19 Apr 08:18:49 08:22:43 18° 179° (S) 08:26:38 437.500
CUTE-I 19 Apr 08:22:50 08:27:53 45° 288° (WNW) 08:32:54 437.470
JUGNU 19 Apr 08:24:09 08:27:22 15° 189° (S) 08:30:32 437.505
STRAND 1 19 Apr 08:28:59 08:33:30 30° 264° (W) 08:37:57 437.568
Cubesat XI-IV 19 Apr 08:30:19 08:35:13 38° 289° (WNW) 08:40:03 437.490
PRISM 19 Apr 08:37:40 08:39:40 13° 268° (W) 08:41:26 437.425
Cosmos 2499 19 Apr 08:48:34 08:54:52 26° 275° (W) 09:00:36 435.465 / 435.565
PCSat 19 Apr 09:22:43 09:26:24 20° 107° (ESE) 09:30:18 145.827
BRITE-PL 19 Apr 09:24:23 09:29:12 54° 100° (E) 09:34:25 437.365/2234.400
DOVE 4 19 Apr 09:24:25 09:28:21 23° 94° (E) 09:32:31 437.250
CINEMA 3 19 Apr 09:27:45 09:29:16 12° 89° (E) 09:31:09 145.822/145.860
COMPASS 1 19 Apr 09:28:30 09:30:54 15° 92° (E) 09:33:29 437.405
O/OREOS (USA 219) 19 Apr 09:33:28 09:36:25 17° 59° (ENE) 09:39:30 437.305
CANX-2 19 Apr 09:37:14 09:41:08 34° 97° (E) 09:45:02 2200.000
SEEDS 19 Apr 09:41:26 09:45:05 28° 96° (E) 09:48:45 437.485
CUTE 1.7 + AOD 2 19 Apr 09:47:24 09:51:27 40° 98° (E) 09:55:29 437.475
GOMX 1 19 Apr 09:49:25 09:54:22 64° 100° (E) 09:59:38 467.674
TIGRISAT 19 Apr 10:02:53 10:03:37 10° 66° (ENE) 10:04:38 435.000
UNISAT 6 19 Apr 10:03:18 10:04:30 11° 66° (ENE) 10:05:59 437.425
SRMSAT 19 Apr 10:07:53 10:11:12 15° 189° (S) 10:14:27 437.500
HO-68 19 Apr 10:13:10 10:20:23 77° 104° (ESE) 10:27:33 435.675
ZACube-1 19 Apr 10:13:28 10:14:33 11° 89° (E) 10:15:58 437.345
CUBEBUG 2 19 Apr 10:14:34 10:17:56 20° 93° (E) 10:21:28 437.445
AAUSAT CUBESAT 2 19 Apr 10:15:58 10:20:03 50° 99° (E) 10:24:07 437.432
Cosmos 2491 19 Apr 10:23:54 10:31:07 29° 70° (ENE) 10:38:35 435.465 / 435.565
Oscar 11 19 Apr 10:27:49 10:31:38 30° 96° (E) 10:35:29 145.826/435.025
DELFI C3 19 Apr 10:38:49 10:42:20 29° 96° (E) 10:45:53 145.870
ANTELSAT 19 Apr 10:42:06 10:45:58 31° 72° (ENE) 10:50:00 437.575/2403.000
QB50P1 19 Apr 10:43:47 10:46:00 14° 69° (ENE) 10:48:23 145.935-145.965
DX 1 19 Apr 10:49:45 10:52:30 17° 93° (E) 10:55:25 434.975-435.025
UWE-3 19 Apr 10:55:21 10:59:49 45° 98° (E) 11:04:20 435.000/436.395/437.385
BUGSAT 1 19 Apr 10:58:48 11:00:49 14° 69° (ENE) 11:03:00 437.445
DOVE 4 19 Apr 11:01:37 11:06:08 35° 287° (WNW) 11:10:47 437.250
CINEMA 3 19 Apr 11:02:02 11:06:55 65° 284° (WNW) 11:11:53 145.822/145.860
COMPASS 1 19 Apr 11:02:53 11:06:46 35° 286° (WNW) 11:10:34 437.405
PCSat 19 Apr 11:04:17 11:09:30 47° 301° (WNW) 11:14:44 145.827
BRITE-PL 19 Apr 11:04:29 11:07:28 16° 290° (WNW) 11:10:18 437.365/2234.400
HUMSAT D 19 Apr 11:05:45 11:08:56 20° 94° (E) 11:12:13 437.325/437.525
QB50P2 19 Apr 11:05:46 11:09:16 27° 72° (ENE) 11:12:52 145.880/145.840
O/OREOS (USA 219) 19 Apr 11:11:52 11:16:02 37° 255° (WSW) 11:20:08 437.305
CANX-2 19 Apr 11:13:57 11:16:49 17° 291° (WNW) 11:19:32 2200.000
SEEDS 19 Apr 11:17:33 11:20:45 20° 289° (WNW) 11:23:48 437.485
FUNcube-1 19 Apr 11:24:22 11:28:59 75° 101° (E) 11:33:33 145.935
CUTE 1.7 + AOD 2 19 Apr 11:24:37 11:27:04 15° 291° (WNW) 11:29:19 437.475
VELOX 1 19 Apr 11:27:41 11:30:55 20° 94° (E) 11:34:17 145.980
YUBILEINY 19 Apr 11:28:04 11:35:43 36° 88° (E) 11:43:35 435.215
POPSAT HIP 1 19 Apr 11:28:19 11:32:21 48° 75° (ENE) 11:36:26 437.405
NANOSAT C BR1 19 Apr 11:28:29 11:32:31 49° 75° (ENE) 11:36:36 145.865
GOMX 1 19 Apr 11:29:37 11:32:08 13° 292° (WNW) 11:34:26 467.674
TIGRISAT 19 Apr 11:35:29 11:39:51 64° 260° (W) 11:44:21 435.000
UNISAT 6 19 Apr 11:36:26 11:40:47 60° 260° (W) 11:45:17 437.425
UKube-1 19 Apr 11:41:56 11:46:15 67° 101° (ESE) 11:50:33 .
AISAT 19 Apr 11:42:03 11:45:58 31° 97° (E) 11:49:57 437.250
ZACube-1 19 Apr 11:46:49 11:51:22 59° 285° (WNW) 11:55:53 437.345
CUBEBUG 2 19 Apr 11:50:23 11:54:44 36° 287° (WNW) 11:59:04 437.445
AAUSAT CUBESAT 2 19 Apr 11:53:45 11:55:17 11° 292° (WNW) 11:56:34 437.432
POLYITAN 1 19 Apr 11:54:29 11:58:40 76° 258° (WSW) 12:02:54 437.675
CUBEBUG 1 19 Apr 11:54:31 11:57:30 19° 93° (E) 12:00:38 437.445
50 SAT 19 Apr 11:55:31 11:59:27 47° 99° (E) 12:03:21 437.505
ESTCUBE 1 19 Apr 11:56:06 11:59:35 23° 94° (E) 12:03:10 437.505/2401.250
HO-68 19 Apr 12:02:39 12:07:27 19° 299° (WNW) 12:11:53 435.675
Oscar 11 19 Apr 12:04:26 12:07:39 20° 290° (WNW) 12:10:43 145.826/435.025
DUCHIFAT 1 19 Apr 12:04:39 12:08:46 59° 260° (W) 12:12:55 145.980
DELFI C3 19 Apr 12:14:32 12:17:19 18° 290° (WNW) 12:19:57 145.870
QB50P1 19 Apr 12:17:38 12:21:34 39° 262° (W) 12:25:32 145.935-145.965
ANTELSAT 19 Apr 12:19:32 12:22:50 20° 267° (W) 12:26:05 437.575/2403.000
Cosmos 2491 19 Apr 12:19:54 12:28:28 55° 269° (W) 12:36:56 435.465 / 435.565
DX 1 19 Apr 12:24:56 12:28:53 34° 288° (WNW) 12:32:49 434.975-435.025
BUGSAT 1 19 Apr 12:32:16 12:36:02 37° 262° (W) 12:39:46 437.445
UWE-3 19 Apr 12:33:05 12:36:02 16° 291° (WNW) 12:38:48 435.000/436.395/437.385
HUMSAT D 19 Apr 12:40:56 12:44:44 29° 288° (WNW) 12:48:25 437.325/437.525
QB50P2 19 Apr 12:41:59 12:45:12 20° 266° (W) 12:48:18 145.880/145.840
VELOX 1 19 Apr 13:03:39 13:07:32 30° 288° (WNW) 13:11:21 145.980
POPSAT HIP 1 19 Apr 13:07:22 13:08:36 11° 270° (W) 13:09:34 437.405
NANOSAT C BR1 19 Apr 13:07:31 13:08:44 11° 270° (W) 13:09:40 145.865
SO-50 19 Apr 13:18:05 13:22:12 34° 113° (ESE) 13:26:30 436.795
AIST 1 19 Apr 13:18:56 13:23:08 54° 81° (E) 13:27:17
AISAT 19 Apr 13:19:05 13:22:24 20° 290° (WNW) 13:25:35 437.250
YUBILEINY 19 Apr 13:24:05 13:32:26 43° 285° (WNW) 13:40:41 435.215
CUBEBUG 1 19 Apr 13:30:05 13:33:57 31° 288° (WNW) 13:37:46 437.445
50 SAT 19 Apr 13:32:29 13:33:54 11° 292° (WNW) 13:35:06 437.505
ESTCUBE 1 19 Apr 13:32:38 13:36:27 27° 289° (WNW) 13:40:12 437.505/2401.250
TISAT 1 19 Apr 13:38:57 13:43:10 62° 101° (E) 13:47:21 437.305
SPROUT 19 Apr 13:42:07 13:46:28 88° 102° (ESE) 13:50:47 437.525
ISS 19 Apr 13:58:47 14:01:19 22° 130° (SE) 14:03:55 145.825
Oscar 19 19 Apr 14:05:04 14:10:10 76° 76° (ENE) 14:15:21 437.125/150
BEESAT 2 19 Apr 14:08:37 14:12:28 38° 56° (NE) 14:16:17 435.950
BEESAT 19 Apr 14:09:33 14:12:48 19° 93° (E) 14:16:12 436.000
SWISSCUBE 19 Apr 14:10:37 14:14:08 21° 94° (E) 14:17:47 437.505
Gurwin Techsat 1B 19 Apr 14:13:27 14:17:27 23° 68° (ENE) 14:21:36 435.225
BEESAT 3 19 Apr 14:16:17 14:20:19 57° 59° (ENE) 14:24:17 437.485
ITAMSAT 1 19 Apr 14:24:31 14:29:08 34° 71° (ENE) 14:33:48 435.822/435.867
AIST 2 19 Apr 14:25:57 14:29:04 20° 50° (NE) 14:32:14 435.215
Cosmos 2504 19 Apr 14:42:39 14:51:13 64° 92° (E) 15:00:00 435.465 / 435.565
SO-50 19 Apr 14:58:59 15:02:49 24° 310° (NW) 15:06:41 436.795
ITUPSAT 1 19 Apr 15:10:38 15:15:25 88° 107° (ESE) 15:20:11 437.325
JAS-2 19 Apr 15:12:48 15:17:41 19° 62° (ENE) 15:22:55 435.910
AO-7 19 Apr 15:31:31 15:38:29 33° 63° (ENE) 15:45:38 29.400- 29.500
ISS 19 Apr 15:34:41 15:37:35 29° 325° (NW) 15:40:29 145.825
STARS 19 Apr 15:34:44 15:37:26 16° 93° (E) 15:40:19 437.465
HORYU 2 19 Apr 15:36:39 15:40:24 27° 71° (ENE) 15:44:14 437.375
BEESAT 19 Apr 15:46:25 15:50:48 37° 288° (WNW) 15:55:08 436.000
SWISSCUBE 19 Apr 15:47:48 15:52:05 33° 288° (WNW) 15:56:16 437.505
BEESAT 2 19 Apr 15:47:51 15:50:18 15° 250° (WSW) 15:52:33 435.950
Gurwin Techsat 1B 19 Apr 15:52:16 15:57:13 39° 262° (W) 16:02:09 435.225
RS-15 19 Apr 15:52:39 16:03:20 66° 114° (ESE) 16:14:12 29.354- 29.394
KKS-1 19 Apr 15:58:09 16:02:31 51° 100° (E) 16:06:54 437.445
AIST 2 19 Apr 16:03:56 16:07:45 33° 247° (WSW) 16:11:28 435.215
ITAMSAT 1 19 Apr 16:04:29 16:08:42 24° 265° (W) 16:12:48 435.822/435.867
Cosmos 2504 19 Apr 16:38:08 16:45:19 26° 291° (WNW) 16:52:14 435.465 / 435.565
JAS-2 19 Apr 16:54:08 17:01:53 85° 257° (WSW) 17:09:47 435.910
STARS 19 Apr 17:09:57 17:14:04 37° 287° (WNW) 17:18:09 437.465
MOZHAYETS 4 19 Apr 17:11:59 17:15:10 19° 93° (E) 17:18:31
HORYU 2 19 Apr 17:13:27 17:17:03 23° 265° (W) 17:20:32 437.375
AO-7 19 Apr 17:22:59 17:31:00 51° 259° (W) 17:39:00 29.400- 29.500
KKS-1 19 Apr 17:36:35 17:38:47 13° 293° (WNW) 17:40:45 437.445
GONETS M04 19 Apr 17:44:50 17:53:21 62° 92° (E) 18:01:59
CUTE-I 19 Apr 18:02:39 18:06:44 24° 68° (ENE) 18:10:58 437.470
RS-15 19 Apr 18:06:49 18:16:33 34° 317° (NW) 18:26:17 29.354- 29.394
Cubesat XI-IV 19 Apr 18:09:45 18:14:11 28° 69° (ENE) 18:18:43 437.490
JAS-2 19 Apr 18:43:58 18:48:01 14° 275° (W) 18:51:28 435.910
MOZHAYETS 4 19 Apr 18:48:22 18:52:31 34° 288° (WNW) 18:56:36
AUBIESAT-1 19 Apr 18:50:32 18:53:22 18° 96° (E) 18:56:11 437.475
DANDE 19 Apr 19:03:17 19:05:59 73° 97° (E) 19:09:18 436.750
STRAND 1 19 Apr 19:06:14 19:07:23 11° 89° (E) 19:08:56 437.568
CUSAT 1 19 Apr 19:08:29 19:11:20 53° 282° (WNW) 19:14:54 437.405
Cosmos 2499 19 Apr 19:25:04 19:33:19 48° 90° (E) 19:41:40 435.465 / 435.565
M-CUBED/EXP-1 PRIME 19 Apr 19:35:15 19:39:38 76° 106° (ESE) 19:43:38 437.505
VERMONT LUNAR 19 Apr 19:41:33 19:44:50 49° 152° (SSE) 19:48:09 437.305
CUTE-I 19 Apr 19:41:42 19:46:38 37° 262° (W) 19:51:32 437.470
GONETS M04 19 Apr 19:43:50 19:50:53 25° 291° (WNW) 19:57:39
Cubesat XI-IV 19 Apr 19:49:28 19:54:13 31° 264° (W) 19:58:53 437.490
PCSat 19 Apr 19:55:13 20:00:37 68° 61° (ENE) 20:06:00 145.827
CUBESAT XI-V 19 Apr 20:05:09 20:09:44 70° 283° (WNW) 20:14:18 437.345
PRISM 19 Apr 20:20:52 20:24:57 70° 284° (WNW) 20:29:01 437.425
AUBIESAT-1 19 Apr 20:24:27 20:28:19 31° 293° (WNW) 20:31:51 437.475
CANX-2 19 Apr 20:28:00 20:30:45 17° 70° (ENE) 20:33:38 2200.000
DOVE 4 19 Apr 20:29:09 20:30:58 13° 68° (ENE) 20:33:03 437.250
RS-15 19 Apr 20:29:29 20:33:59 13° 350° (N) 20:38:18 29.354- 29.394
ISS 19 Apr 20:29:53 20:30:32 10° 24° (NNE) 20:31:15 145.825
SEEDS 19 Apr 20:31:49 20:33:56 14° 69° (ENE) 20:36:15 437.485
BRITE-PL 19 Apr 20:33:14 20:37:03 37° 74° (ENE) 20:40:54 437.365/2234.400
CUTE 1.7 + AOD 2 19 Apr 20:37:50 20:40:55 20° 70° (ENE) 20:44:08 437.475
HO-68 19 Apr 20:38:11 20:44:43 41° 68° (ENE) 20:51:23 435.675
PHONESAT 2.4 19 Apr 20:40:09 20:43:39 51° 152° (SSE) 20:47:09 2401.200-2431.200
STRAND 1 19 Apr 20:42:06 20:47:11 69° 286° (WNW) 20:52:14 437.568
GOMX 1 19 Apr 20:55:23 20:59:15 41° 74° (ENE) 21:03:15 467.674
AAUSAT CUBESAT 2 19 Apr 21:04:11 21:07:27 23° 71° (ENE) 21:10:49 437.432
CUBEBUG 2 19 Apr 21:12:50 21:13:08 10° 66° (ENE) 21:13:43 437.445
Cosmos 2499 19 Apr 21:18:44 21:26:42 35° 287° (WNW) 21:34:26 435.465 / 435.565
VERMONT LUNAR 19 Apr 21:19:12 21:22:27 41° 347° (NNW) 21:25:40 437.305
Oscar 11 19 Apr 21:20:28 21:23:07 17° 69° (ENE) 21:25:58 145.826/435.025
DELFI C3 19 Apr 21:25:01 21:26:43 13° 69° (ENE) 21:28:38 145.870
PCSat 19 Apr 21:40:57 21:43:32 13° 255° (WSW) 21:45:46 145.827
YUBILEINY 19 Apr 21:44:23 21:48:00 13° 61° (ENE) 21:52:18 435.215
DX 1 19 Apr 21:44:49 21:45:17 10° 66° (ENE) 21:46:02 434.975-435.025
UWE-3 19 Apr 21:50:06 21:53:25 23° 71° (ENE) 21:56:56 435.000/436.395/437.385
COMPASS 1 19 Apr 21:50:15 21:54:29 82° 258° (WSW) 21:58:45 437.405
SO-50 19 Apr 21:53:18 21:56:21 17° 46° (NE) 21:59:33 436.795
CINEMA 3 19 Apr 22:00:48 22:04:59 79° 77° (ENE) 22:09:20 145.822/145.860
CANX-2 19 Apr 22:02:31 22:06:26 34° 263° (W) 22:10:21 2200.000
ISS 19 Apr 22:04:13 22:07:27 67° 42° (NE) 22:10:40 145.825
DOVE 4 19 Apr 22:04:28 22:08:25 42° 262° (W) 22:12:27 437.250
SEEDS 19 Apr 22:05:22 22:09:25 42° 262° (W) 22:13:29 437.485
CUTE 1.7 + AOD 2 19 Apr 22:12:56 22:16:40 29° 264° (W) 22:20:24 437.475
BRITE-PL 19 Apr 22:13:46 22:15:52 13° 269° (W) 22:17:44 437.365/2234.400
FUNcube-1 19 Apr 22:17:11 22:21:04 37° 73° (ENE) 22:25:05 145.935
PHONESAT 2.4 19 Apr 22:18:32 22:21:59 43° 347° (NNW) 22:25:25 2401.200-2431.200
VELOX 1 19 Apr 22:23:46 22:25:37 13° 67° (ENE) 22:27:43 145.980
HO-68 19 Apr 22:26:07 22:32:31 34° 264° (W) 22:38:50 435.675
UKube-1 19 Apr 22:33:45 22:37:41 36° 73° (ENE) 22:41:41 .
GOMX 1 19 Apr 22:36:04 22:37:45 12° 270° (W) 22:39:12 467.674
AISAT 19 Apr 22:37:35 22:40:39 19° 69° (ENE) 22:43:51 437.250
50 SAT 19 Apr 22:38:51 22:41:32 18° 70° (ENE) 22:44:21 437.505
ZACube-1 19 Apr 22:39:24 22:43:37 72° 76° (ENE) 22:47:58 437.345
AAUSAT CUBESAT 2 19 Apr 22:39:31 22:42:59 24° 265° (W) 22:46:24 437.432
CUBEBUG 2 19 Apr 22:45:09 22:49:19 60° 260° (W) 22:53:39 437.445
RS-15 19 Apr 22:46:04 22:53:06 18° 26° (NNE) 23:00:45 29.354- 29.394
CUBEBUG 1 19 Apr 22:49:45 22:50:47 11° 67° (ENE) 22:52:04 437.445
ESTCUBE 1 19 Apr 22:53:42 22:56:13 15° 68° (ENE) 22:58:55 437.505/2401.250
Oscar 11 19 Apr 22:55:01 22:59:03 36° 263° (W) 23:03:05 145.826/435.025
VERMONT LUNAR 19 Apr 22:57:21 23:00:25 30° 3° (N) 23:03:28 437.305
DELFI C3 19 Apr 22:57:38 23:01:32 43° 261° (W) 23:05:27 145.870
DX 1 19 Apr 23:16:48 23:21:05 61° 259° (W) 23:25:23 434.975-435.025
POPSAT HIP 1 19 Apr 23:19:41 23:20:19 10° 90° (E) 23:21:16 437.405
NANOSAT C BR1 19 Apr 23:19:43 23:20:13 10° 90° (E) 23:21:03 145.865
Cosmos 2491 19 Apr 23:20:55 23:28:29 36° 88° (E) 23:36:17 435.465 / 435.565
UWE-3 19 Apr 23:26:23 23:29:54 24° 266° (W) 23:33:25 435.000/436.395/437.385
HUMSAT D 19 Apr 23:28:52 23:33:00 61° 260° (W) 23:37:11 437.325/437.525
TIGRISAT 19 Apr 23:30:40 23:34:57 35° 97° (E) 23:39:15 435.000
UNISAT 6 19 Apr 23:31:49 23:36:11 37° 97° (E) 23:40:32 437.425
SO-50 19 Apr 23:32:29 23:37:23 63° 243° (WSW) 23:42:12 436.795
YUBILEINY 19 Apr 23:37:43 23:46:32 81° 84° (E) 23:55:14 435.215
O/OREOS (USA 219) 19 Apr 23:41:27 23:45:36 35° 105° (ESE) 23:49:48 437.305
POLYITAN 1 19 Apr 23:43:54 23:47:16 22° 95° (E) 23:50:43 437.675
DUCHIFAT 1 19 Apr 23:53:04 23:56:42 27° 96° (E) 00:00:23 145.980
FUNcube-1 19 Apr 23:55:03 23:57:37 15° 269° (W) 00:00:03 145.935
PHONESAT 2.4 19 Apr 23:57:25 00:00:42 33° 4° (N) 00:03:58 2401.200-2431.200
VELOX 1 19 Apr 23:57:33 00:01:50 49° 261° (W) 00:06:06 145.980
QB50P1 20 Apr 00:05:52 00:09:54 40° 98° (E) 00:13:57 145.935-145.965
UKube-1 20 Apr 00:11:19 00:14:01 16° 267° (W) 00:16:32 .
50 SAT 20 Apr 00:12:47 00:16:12 27° 264° (W) 00:19:37 437.505
AISAT 20 Apr 00:13:07 00:17:04 31° 263° (W) 00:20:59 437.250
ANTELSAT 20 Apr 00:13:19 00:18:03 75° 284° (WNW) 00:22:43 437.575/2403.000
BUGSAT 1 20 Apr 00:17:30 00:21:18 36° 98° (E) 00:25:11 437.445
CUBEBUG 1 20 Apr 00:22:27 00:26:44 57° 260° (W) 00:31:00 437.445
TISAT 1 20 Apr 00:28:21 00:31:57 29° 72° (ENE) 00:35:37 437.305
ESTCUBE 1 20 Apr 00:28:27 00:32:46 43° 261° (W) 00:37:05 437.505/2401.250
QB50P2 20 Apr 00:29:18 00:33:37 82° 102° (ESE) 00:37:55 145.880/145.840
SPROUT 20 Apr 00:33:06 00:37:07 42° 74° (ENE) 00:41:11 437.525
VERMONT LUNAR 20 Apr 00:34:55 00:38:17 67° 20° (NNE) 00:41:37 437.305
Cosmos 2504 20 Apr 00:42:11 00:46:55 17° 64° (ENE) 00:51:55 435.465 / 435.565
NANOSAT C BR1 20 Apr 00:52:17 00:56:27 53° 285° (WNW) 01:00:38 145.865
POPSAT HIP 1 20 Apr 00:52:24 00:56:35 53° 285° (WNW) 01:00:46 437.405
RS-15 20 Apr 00:57:32 01:08:53 58° 54° (NE) 01:20:47 29.354- 29.394
TIGRISAT 20 Apr 01:07:58 01:11:29 21° 291° (WNW) 01:14:52 435.000
UNISAT 6 20 Apr 01:09:18 01:12:43 19° 291° (WNW) 01:15:57 437.425
BEESAT 20 Apr 01:13:40 01:16:26 16° 67° (ENE) 01:19:25 436.000
SWISSCUBE 20 Apr 01:14:41 01:17:47 18° 68° (ENE) 01:21:03 437.505
Cosmos 2491 20 Apr 01:17:04 01:25:14 43° 285° (WNW) 01:33:22 435.465 / 435.565
POLYITAN 1 20 Apr 01:19:33 01:23:09 26° 289° (WNW) 01:26:40 437.675
O/OREOS (USA 219) 20 Apr 01:21:49 01:25:10 19° 300° (WNW) 01:28:24 437.305
DUCHIFAT 1 20 Apr 01:29:08 01:32:24 21° 290° (WNW) 01:35:33 145.980
PHONESAT 2.4 20 Apr 01:35:43 01:39:17 71° 20° (NNE) 01:42:50 2401.200-2431.200
YUBILEINY 20 Apr 01:37:04 01:42:26 17° 278° (W) 01:47:12 435.215
QB50P1 20 Apr 01:43:00 01:45:28 15° 291° (WNW) 01:47:47 145.935-145.965
AIST 1 20 Apr 01:45:00 01:49:00 38° 92° (E) 01:53:01
BUGSAT 1 20 Apr 01:54:05 01:56:32 15° 291° (WNW) 01:58:49 437.445
TISAT 1 20 Apr 02:04:50 02:07:48 18° 267° (W) 02:10:39 437.305
SPROUT 20 Apr 02:11:23 02:13:29 13° 269° (W) 02:15:21 437.525
VERMONT LUNAR 20 Apr 02:12:56 02:15:37 22° 214° (SW) 02:18:15 437.305
ITUPSAT 1 20 Apr 02:14:01 02:18:48 70° 75° (ENE) 02:23:35 437.325
Oscar 19 20 Apr 02:20:17 02:25:00 35° 97° (E) 02:29:45 437.125/150
Cosmos 2504 20 Apr 02:33:22 02:41:33 79° 265° (W) 02:49:05 435.465 / 435.565
Gurwin Techsat 1B 20 Apr 02:35:05 02:36:04 11° 88° (E) 02:37:27 435.225
ITAMSAT 1 20 Apr 02:41:48 02:44:42 16° 91° (E) 02:47:52 435.822/435.867
BEESAT 20 Apr 02:49:20 02:53:56 47° 261° (W) 02:58:34 436.000
SWISSCUBE 20 Apr 02:50:49 02:55:22 41° 262° (W) 02:59:53 437.505
KKS-1 20 Apr 02:53:27 02:57:17 30° 72° (ENE) 03:01:12 437.445
RS-15 20 Apr 03:10:33 03:21:03 38° 252° (WSW) 03:31:36 29.354- 29.394
PHONESAT 2.4 20 Apr 03:14:29 03:17:21 22° 215° (SW) 03:20:08 2401.200-2431.200
AIST 1 20 Apr 03:24:27 03:26:53 14° 288° (WNW) 03:29:07
Oscar 19 20 Apr 04:00:00 04:04:12 24° 291° (WNW) 04:08:15 437.125/150
GONETS M04 20 Apr 04:00:05 04:06:56 26° 69° (ENE) 04:14:05
BEESAT 2 20 Apr 04:00:48 04:03:17 16° 111° (ESE) 04:05:57 435.950
STARS 20 Apr 04:03:12 04:07:32 65° 259° (WSW) 04:11:54 437.465
CUSAT 1 20 Apr 04:06:02 04:08:59 13° 66° (ENE) 04:12:42 437.405
BEESAT 3 20 Apr 04:06:58 04:10:11 23° 112° (ESE) 04:13:31 437.485
Gurwin Techsat 1B 20 Apr 04:11:23 04:16:42 75° 285° (WNW) 04:22:00 435.225
JAS-2 20 Apr 04:11:31 04:14:40 15° 86° (E) 04:18:02 435.910
MOZHAYETS 4 20 Apr 04:12:01 04:14:08 13° 67° (ENE) 04:16:29
ITAMSAT 1 20 Apr 04:19:33 04:24:35 52° 287° (WNW) 04:29:34 435.822/435.867
KKS-1 20 Apr 04:30:41 04:33:59 20° 266° (W) 04:37:10 437.445
Cosmos 2504 20 Apr 04:32:04 04:33:38 10° 282° (WNW) 04:34:27 435.465 / 435.565
JUGNU 20 Apr 04:32:43 04:35:45 14° 170° (S) 04:38:51 437.505
HORYU 2 20 Apr 05:06:54 05:11:26 89° 103° (ESE) 05:15:55 437.375
Cosmos 2499 20 Apr 05:25:26 05:26:46 11° 59° (ENE) 05:28:45 435.465 / 435.565
AO-7 20 Apr 05:27:48 05:36:06 69° 104° (ESE) 05:44:24 29.400- 29.500
AUBIESAT-1 20 Apr 05:34:55 05:38:03 18° 63° (ENE) 05:41:22 437.475
BEESAT 2 20 Apr 05:37:20 05:41:09 36° 304° (NW) 05:45:00 435.950
DANDE 20 Apr 05:43:01 05:49:55 60° 79° (E) 05:58:12 436.750
BEESAT 3 20 Apr 05:44:39 05:48:08 26° 307° (NW) 05:51:35 437.485
CUSAT 1 20 Apr 05:45:23 05:52:38 77° 81° (E) 06:00:58 437.405
MOZHAYETS 4 20 Apr 05:46:25 05:50:57 53° 261° (W) 05:55:31
JAS-2 20 Apr 05:54:08 06:00:42 68° 286° (WNW) 06:06:27 435.910
GONETS M04 20 Apr 05:55:46 06:04:28 62° 268° (W) 06:13:03
AIST 2 20 Apr 05:58:07 06:02:21 72° 300° (WNW) 06:06:39 435.215
SRMSAT 20 Apr 06:18:13 06:21:23 15° 171° (S) 06:24:37 437.500
STRAND 1 20 Apr 06:18:56 06:21:00 13° 65° (ENE) 06:23:21 437.568
M-CUBED/EXP-1 PRIME 20 Apr 06:19:30 06:24:05 61° 71° (ENE) 06:28:52 437.505
JUGNU 20 Apr 06:20:14 06:24:04 18° 180° (S) 06:27:53 437.505
CUTE-I 20 Apr 06:24:57 06:26:16 11° 89° (E) 06:28:00 437.470
